Time,TemperatureF,DewpointF,PressureIn,WindDirection,WindDirectionDegrees,WindSpeedMPH,WindSpeedGustMPH,Humidity,HourlyPrecipIn,Conditions,Clouds,dailyrainin,SoftwareType,DateUTC
2013-06-19 00:11:00,67.0,63.0,29.95,NNW,340,0.0,-999.0,88,-99.99,,,-99.99,,2013-06-19 05:11:00,
2013-06-19 00:22:00,67.0,63.0,29.95,NNW,340,0.0,-999.0,88,-99.99,,,-99.99,,2013-06-19 05:22:00,
2013-06-19 00:32:00,65.0,62.0,29.96,NNW,340,0.0,-999.0,89,-99.99,,,-99.99,,2013-06-19 05:32:00,
2013-06-19 00:42:00,65.0,62.0,29.96,NNW,340,0.0,-999.0,89,-99.99,,,-99.99,,2013-06-19 05:42:00,
2013-06-19 00:52:00,65.0,62.0,29.96,NNW,340,0.0,-999.0,90,-99.99,,,-99.99,,2013-06-19 05:52:00,
2013-06-19 01:01:00,64.0,61.0,29.97,NNW,340,0.0,-999.0,90,-99.99,,,-99.99,,2013-06-19 06:01:00,
2013-06-19 01:11:00,64.0,61.0,29.97,NNW,340,0.0,-999.0,90,-99.99,,,-99.99,,2013-06-19 06:11:00,
2013-06-19 01:22:00,64.0,61.0,29.96,NNW,340,0.0,-999.0,90,-99.99,,,-99.99,,2013-06-19 06:22:00,
2013-06-19 01:33:00,64.0,61.0,29.96,NNW,340,0.0,-999.0,91,-99.99,,,-99.99,,2013-06-19 06:33:00,
2013-06-19 01:42:00,64.0,61.0,29.96,NNW,340,0.0,-999.0,91,-99.99,,,-99.99,,2013-06-19 06:42:00,
2013-06-19 01:52:00,65.0,63.0,29.96,NNW,340,0.0,-999.0,92,-99.99,,,-99.99,,2013-06-19 06:52:00,
2013-06-19 02:01:00,65.0,63.0,29.96,NNW,340,0.0,-999.0,92,-99.99,,,-99.99,,2013-06-19 07:01:00,
2013-06-19 02:11:00,65.0,63.0,29.96,NNW,340,0.0,-999.0,92,-99.99,,,-99.99,,2013-06-19 07:11:00,
2013-06-19 02:22:00,64.0,62.0,29.96,NNW,340,0.0,-999.0,92,-99.99,,,-99.99,,2013-06-19 07:22:00,
2013-06-19 02:33:00,64.0,62.0,29.97,NNW,340,0.0,-999.0,92,-99.99,,,-99.99,,2013-06-19 07:33:00,
2013-06-19 02:43:00,64.0,62.0,29.97,NNW,340,0.0,-999.0,92,-99.99,,,-99.99,,2013-06-19 07:43:00,
2013-06-19 02:53:00,64.0,62.0,29.97,NNW,340,0.0,-999.0,93,-99.99,,,-99.99,,2013-06-19 07:53:00,
2013-06-19 03:02:00,64.0,62.0,29.97,NNW,340,0.0,-999.0,93,-99.99,,,-99.99,,2013-06-19 08:02:00,
2013-06-19 03:11:00,64.0,62.0,29.97,NNW,340,0.0,-999.0,93,-99.99,,,-99.99,,2013-06-19 08:11:00,
2013-06-19 03:22:00,64.0,62.0,29.96,NNW,340,0.0,-999.0,93,-99.99,,,-99.99,,2013-06-19 08:22:00,
2013-06-19 03:33:00,64.0,62.0,29.96,NNW,340,0.0,-999.0,93,-99.99,,,-99.99,,2013-06-19 08:33:00,
2013-06-19 03:43:00,64.0,62.0,29.96,NNW,340,0.0,-999.0,93,-99.99,,,-99.99,,2013-06-19 08:43:00,
2013-06-19 03:54:00,64.0,62.0,29.96,NNW,340,0.0,-999.0,93,-99.99,,,-99.99,,2013-06-19 08:54:00,
2013-06-19 04:02:00,64.0,62.0,29.96,NNW,340,0.0,-999.0,93,-99.99,,,-99.99,,2013-06-19 09:02:00,
2013-06-19 04:11:00,64.0,62.0,29.96,NNW,340,0.0,-999.0,93,-99.99,,,-99.99,,2013-06-19 09:11:00,
2013-06-19 04:22:00,64.0,62.0,29.96,NNW,340,0.0,-999.0,93,-99.99,,,-99.99,,2013-06-19 09:22:00,
2013-06-19 04:34:00,64.0,62.0,29.96,NNW,340,0.0,-999.0,93,-99.99,,,-99.99,,2013-06-19 09:34:00,
2013-06-19 04:43:00,64.0,62.0,29.96,NNW,340,0.0,-999.0,93,-99.99,,,-99.99,,2013-06-19 09:43:00,
2013-06-19 04:53:00,64.0,62.0,29.96,NNW,340,0.0,-999.0,94,-99.99,,,-99.99,,2013-06-19 09:53:00,
2013-06-19 05:01:00,63.0,61.0,29.97,NNW,340,0.0,-999.0,94,-99.99,,,-99.99,,2013-06-19 10:01:00,
2013-06-19 05:11:00,63.0,61.0,29.97,NNW,340,0.0,-999.0,94,-99.99,,,-99.99,,2013-06-19 10:11:00,
2013-06-19 05:22:00,63.0,61.0,29.96,NNW,340,0.0,-999.0,94,-99.99,,,-99.99,,2013-06-19 10:22:00,
2013-06-19 05:33:00,63.0,61.0,29.97,NNW,340,0.0,-999.0,94,-99.99,,,-99.99,,2013-06-19 10:33:00,
2013-06-19 05:42:00,63.0,61.0,29.97,NNW,340,0.0,-999.0,94,-99.99,,,-99.99,,2013-06-19 10:42:00,
2013-06-19 05:53:00,63.0,61.0,29.98,NNW,340,0.0,-999.0,94,-99.99,,,-99.99,,2013-06-19 10:53:00,
2013-06-19 06:02:00,63.0,61.0,29.98,NNW,340,0.0,-999.0,94,-99.99,,,-99.99,,2013-06-19 11:02:00,
2013-06-19 06:11:00,63.0,61.0,29.98,NNW,340,0.0,-999.0,94,-99.99,,,-99.99,,2013-06-19 11:11:00,
2013-06-19 06:22:00,63.0,61.0,29.98,NNW,340,0.0,-999.0,94,-99.99,,,-99.99,,2013-06-19 11:22:00,
2013-06-19 06:33:00,63.0,61.0,29.98,NNW,340,0.0,-999.0,94,-99.99,,,-99.99,,2013-06-19 11:33:00,
2013-06-19 06:42:00,63.0,61.0,29.98,NNW,340,0.0,-999.0,94,-99.99,,,-99.99,,2013-06-19 11:42:00,
2013-06-19 06:54:00,63.0,61.0,29.98,NNW,340,0.0,-999.0,94,-99.99,,,-99.99,,2013-06-19 11:54:00,
2013-06-19 07:01:00,63.0,62.0,29.98,NNW,340,0.0,-999.0,95,-99.99,,,-99.99,,2013-06-19 12:01:00,
2013-06-19 07:12:00,63.0,62.0,29.98,NNW,340,0.0,-999.0,95,-99.99,,,-99.99,,2013-06-19 12:12:00,
2013-06-19 07:22:00,64.0,63.0,29.98,NNW,340,0.0,-999.0,95,-99.99,,,-99.99,,2013-06-19 12:22:00,
2013-06-19 07:34:00,65.0,64.0,29.98,NNW,340,0.0,-999.0,95,-99.99,,,-99.99,,2013-06-19 12:34:00,
2013-06-19 07:44:00,65.0,64.0,29.98,NNW,340,0.0,-999.0,95,-99.99,,,-99.99,,2013-06-19 12:44:00,
2013-06-19 07:53:00,66.0,65.0,29.99,NNW,340,0.0,-999.0,95,-99.99,,,-99.99,,2013-06-19 12:53:00,
2013-06-19 08:02:00,67.0,66.0,29.99,NNW,340,0.0,-999.0,95,-99.99,,,-99.99,,2013-06-19 13:02:00,
2013-06-19 08:11:00,67.0,66.0,29.99,NNW,340,0.0,-999.0,95,-99.99,,,-99.99,,2013-06-19 13:11:00,
2013-06-19 08:22:00,68.0,67.0,29.98,NNW,340,0.0,-999.0,95,-99.99,,,-99.99,,2013-06-19 13:22:00,
2013-06-19 08:33:00,70.0,68.0,29.99,SW,231,0.0,-999.0,95,-99.99,,,-99.99,,2013-06-19 13:33:00,
2013-06-19 08:42:00,70.0,68.0,29.99,SW,231,0.0,-999.0,95,-99.99,,,-99.99,,2013-06-19 13:42:00,
2013-06-19 08:54:00,70.0,68.0,29.99,SSW,200,0.0,-999.0,92,-99.99,,,-99.99,,2013-06-19 13:54:00,
2013-06-19 09:02:00,72.0,66.0,30.00,South,173,1.0,-999.0,82,-99.99,,,-99.99,,2013-06-19 14:02:00,
2013-06-19 09:11:00,72.0,66.0,30.00,South,173,1.0,-999.0,82,-99.99,,,-99.99,,2013-06-19 14:11:00,
2013-06-19 09:22:00,75.0,65.0,30.00,SSE,159,1.0,-999.0,72,-99.99,,,-99.99,,2013-06-19 14:22:00,
2013-06-19 09:33:00,76.0,64.0,30.00,SSE,161,1.0,-999.0,66,-99.99,,,-99.99,,2013-06-19 14:33:00,
2013-06-19 09:43:00,76.0,64.0,30.00,SSE,161,1.0,-999.0,66,-99.99,,,-99.99,,2013-06-19 14:43:00,
2013-06-19 09:53:00,77.0,64.0,30.00,South,174,3.0,-999.0,64,-99.99,,,-99.99,,2013-06-19 14:53:00,
2013-06-19 10:01:00,78.0,65.0,30.00,SSE,161,0.0,-999.0,65,-99.99,,,-99.99,,2013-06-19 15:01:00,
2013-06-19 10:11:00,78.0,65.0,30.00,SSE,161,0.0,-999.0,65,-99.99,,,-99.99,,2013-06-19 15:11:00,
2013-06-19 10:22:00,77.0,64.0,30.00,SSE,161,0.0,-999.0,64,-99.99,,,-99.99,,2013-06-19 15:22:00,
2013-06-19 10:33:00,77.0,64.0,29.99,SSE,163,0.0,-999.0,65,-99.99,,,-99.99,,2013-06-19 15:33:00,
2013-06-19 10:42:00,77.0,64.0,29.99,SSE,163,0.0,-999.0,65,-99.99,,,-99.99,,2013-06-19 15:42:00,
2013-06-19 10:53:00,77.0,65.0,29.99,SSE,165,0.0,-999.0,67,-99.99,,,-99.99,,2013-06-19 15:53:00,
2013-06-19 11:01:00,79.0,66.0,29.99,SSE,168,0.0,-999.0,65,-99.99,,,-99.99,,2013-06-19 16:01:00,
2013-06-19 11:11:00,79.0,66.0,29.99,SSE,168,0.0,-999.0,65,-99.99,,,-99.99,,2013-06-19 16:11:00,
2013-06-19 11:22:00,81.0,65.0,29.98,South,172,4.0,-999.0,58,-99.99,,,-99.99,,2013-06-19 16:22:00,
2013-06-19 11:33:00,82.0,66.0,29.98,South,173,6.0,-999.0,58,-99.99,,,-99.99,,2013-06-19 16:33:00,
2013-06-19 11:43:00,82.0,66.0,29.98,South,173,6.0,-999.0,58,-99.99,,,-99.99,,2013-06-19 16:43:00,
2013-06-19 11:53:00,81.0,65.0,29.98,South,179,2.0,-999.0,59,-99.99,,,-99.99,,2013-06-19 16:53:00,
2013-06-19 12:02:00,82.0,68.0,29.97,South,186,3.0,-999.0,62,-99.99,,,-99.99,,2013-06-19 17:02:00,
2013-06-19 12:11:00,82.0,68.0,29.97,South,186,3.0,-999.0,62,-99.99,,,-99.99,,2013-06-19 17:11:00,
2013-06-19 12:22:00,83.0,66.0,29.96,South,179,2.0,-999.0,57,-99.99,,,-99.99,,2013-06-19 17:22:00,
2013-06-19 12:34:00,84.0,68.0,29.96,South,174,4.0,-999.0,59,-99.99,,,-99.99,,2013-06-19 17:34:00,
2013-06-19 12:43:00,84.0,68.0,29.96,South,174,4.0,-999.0,59,-99.99,,,-99.99,,2013-06-19 17:43:00,
2013-06-19 12:53:00,84.0,66.0,29.96,South,173,5.0,-999.0,55,-99.99,,,-99.99,,2013-06-19 17:53:00,
2013-06-19 13:01:00,84.0,67.0,29.96,South,183,2.0,-999.0,56,-99.99,,,-99.99,,2013-06-19 18:01:00,
2013-06-19 13:11:00,84.0,67.0,29.96,South,183,2.0,-999.0,56,-99.99,,,-99.99,,2013-06-19 18:11:00,
2013-06-19 13:24:00,85.0,69.0,29.95,ESE,102,2.0,-999.0,58,-99.99,,,-99.99,,2013-06-19 18:24:00,
2013-06-19 13:33:00,84.0,67.0,29.95,South,178,5.0,-999.0,56,-99.99,,,-99.99,,2013-06-19 18:33:00,
2013-06-19 13:44:00,84.0,67.0,29.95,South,178,5.0,-999.0,56,-99.99,,,-99.99,,2013-06-19 18:44:00,
2013-06-19 13:53:00,85.0,69.0,29.94,South,170,5.0,-999.0,58,-99.99,,,-99.99,,2013-06-19 18:53:00,
2013-06-19 14:01:00,84.0,67.0,29.94,South,173,3.0,-999.0,57,-99.99,,,-99.99,,2013-06-19 19:01:00,
2013-06-19 14:11:00,84.0,67.0,29.94,South,173,3.0,-999.0,57,-99.99,,,-99.99,,2013-06-19 19:11:00,
2013-06-19 14:22:00,84.0,66.0,29.94,South,172,3.0,-999.0,55,-99.99,,,-99.99,,2013-06-19 19:22:00,
2013-06-19 14:32:00,85.0,67.0,29.93,SSE,162,2.0,-999.0,55,-99.99,,,-99.99,,2013-06-19 19:32:00,
2013-06-19 14:43:00,85.0,67.0,29.93,SSE,162,2.0,-999.0,55,-99.99,,,-99.99,,2013-06-19 19:43:00,
2013-06-19 14:53:00,86.0,68.0,29.93,South,169,3.0,-999.0,55,-99.99,,,-99.99,,2013-06-19 19:53:00,
2013-06-19 15:02:00,85.0,68.0,29.93,SSE,160,1.0,-999.0,57,-99.99,,,-99.99,,2013-06-19 20:02:00,
2013-06-19 15:11:00,85.0,68.0,29.93,SSE,160,1.0,-999.0,57,-99.99,,,-99.99,,2013-06-19 20:11:00,
2013-06-19 15:22:00,86.0,69.0,29.94,SSE,155,3.0,-999.0,58,-99.99,,,-99.99,,2013-06-19 20:22:00,
2013-06-19 15:33:00,86.0,68.0,29.94,South,185,2.0,-999.0,55,-99.99,,,-99.99,,2013-06-19 20:33:00,
2013-06-19 15:42:00,86.0,68.0,29.94,South,185,2.0,-999.0,55,-99.99,,,-99.99,,2013-06-19 20:42:00,
2013-06-19 15:52:00,87.0,67.0,29.94,South,180,4.0,-999.0,51,-99.99,,,-99.99,,2013-06-19 20:52:00,
2013-06-19 16:02:00,86.0,68.0,29.94,South,182,3.0,-999.0,55,-99.99,,,-99.99,,2013-06-19 21:02:00,
2013-06-19 16:11:00,86.0,68.0,29.94,South,182,3.0,-999.0,55,-99.99,,,-99.99,,2013-06-19 21:11:00,
2013-06-19 16:22:00,87.0,69.0,29.93,South,178,2.0,-999.0,56,-99.99,,,-99.99,,2013-06-19 21:22:00,
2013-06-19 16:33:00,86.0,69.0,29.93,South,186,0.0,-999.0,57,-99.99,,,-99.99,,2013-06-19 21:33:00,
2013-06-19 16:44:00,86.0,69.0,29.93,South,186,0.0,-999.0,57,-99.99,,,-99.99,,2013-06-19 21:44:00,
2013-06-19 16:52:00,86.0,69.0,29.93,South,176,4.0,-999.0,57,-99.99,,,-99.99,,2013-06-19 21:52:00,
2013-06-19 17:01:00,85.0,68.0,29.93,South,178,4.0,-999.0,56,-99.99,,,-99.99,,2013-06-19 22:01:00,
2013-06-19 17:11:00,85.0,68.0,29.93,South,178,4.0,-999.0,56,-99.99,,,-99.99,,2013-06-19 22:11:00,
2013-06-19 17:22:00,85.0,68.0,29.92,South,177,1.0,-999.0,56,-99.99,,,-99.99,,2013-06-19 22:22:00,
2013-06-19 17:34:00,85.0,68.0,29.92,South,178,4.0,-999.0,57,-99.99,,,-99.99,,2013-06-19 22:34:00,
2013-06-19 17:43:00,85.0,68.0,29.92,South,178,4.0,-999.0,57,-99.99,,,-99.99,,2013-06-19 22:43:00,
2013-06-19 17:53:00,84.0,66.0,29.91,South,170,5.0,-999.0,55,-99.99,,,-99.99,,2013-06-19 22:53:00,
2013-06-19 18:02:00,85.0,68.0,29.91,South,174,1.0,-999.0,57,-99.99,,,-99.99,,2013-06-19 23:02:00,
2013-06-19 18:12:00,85.0,68.0,29.91,South,174,1.0,-999.0,57,-99.99,,,-99.99,,2013-06-19 23:12:00,
2013-06-19 18:23:00,85.0,68.0,29.91,South,176,5.0,-999.0,56,-99.99,,,-99.99,,2013-06-19 23:23:00,
2013-06-19 18:33:00,84.0,66.0,29.90,SSE,167,7.0,-999.0,55,-99.99,,,-99.99,,2013-06-19 23:33:00,
2013-06-19 18:43:00,84.0,66.0,29.90,SSE,167,7.0,-999.0,55,-99.99,,,-99.99,,2013-06-19 23:43:00,
2013-06-19 18:52:00,85.0,66.0,29.90,South,171,1.0,-999.0,54,-99.99,,,-99.99,,2013-06-19 23:52:00,
2013-06-19 19:01:00,85.0,66.0,29.90,SSE,148,8.0,-999.0,54,-99.99,,,-99.99,,2013-06-20 00:01:00,
2013-06-19 19:12:00,85.0,66.0,29.90,SSE,148,8.0,-999.0,54,-99.99,,,-99.99,,2013-06-20 00:12:00,
2013-06-19 19:22:00,84.0,66.0,29.89,South,173,3.0,-999.0,55,-99.99,,,-99.99,,2013-06-20 00:22:00,
2013-06-19 19:33:00,84.0,66.0,29.89,South,175,2.0,-999.0,54,-99.99,,,-99.99,,2013-06-20 00:33:00,
2013-06-19 19:44:00,84.0,66.0,29.89,South,175,2.0,-999.0,54,-99.99,,,-99.99,,2013-06-20 00:44:00,
2013-06-19 19:52:00,84.0,66.0,29.89,SSE,168,3.0,-999.0,55,-99.99,,,-99.99,,2013-06-20 00:52:00,
2013-06-19 20:02:00,83.0,66.0,29.89,South,169,1.0,-999.0,57,-99.99,,,-99.99,,2013-06-20 01:02:00,
2013-06-19 20:11:00,83.0,66.0,29.89,South,169,1.0,-999.0,57,-99.99,,,-99.99,,2013-06-20 01:11:00,
2013-06-19 20:22:00,82.0,67.0,29.89,South,176,1.0,-999.0,60,-99.99,,,-99.99,,2013-06-20 01:22:00,
2013-06-19 20:33:00,81.0,67.0,29.90,South,176,0.0,-999.0,62,-99.99,,,-99.99,,2013-06-20 01:33:00,
2013-06-19 20:44:00,81.0,67.0,29.90,South,176,0.0,-999.0,62,-99.99,,,-99.99,,2013-06-20 01:44:00,
2013-06-19 20:52:00,80.0,67.0,29.89,South,176,0.0,-999.0,65,-99.99,,,-99.99,,2013-06-20 01:52:00,
2013-06-19 21:02:00,78.0,67.0,29.89,South,176,0.0,-999.0,69,-99.99,,,-99.99,,2013-06-20 02:02:00,
2013-06-19 21:11:00,78.0,67.0,29.89,South,176,0.0,-999.0,69,-99.99,,,-99.99,,2013-06-20 02:11:00,
2013-06-19 21:24:00,77.0,68.0,29.90,South,176,0.0,-999.0,73,-99.99,,,-99.99,,2013-06-20 02:24:00,
2013-06-19 21:33:00,76.0,68.0,29.90,South,176,0.0,-999.0,76,-99.99,,,-99.99,,2013-06-20 02:33:00,
2013-06-19 21:43:00,76.0,68.0,29.90,South,176,0.0,-999.0,76,-99.99,,,-99.99,,2013-06-20 02:43:00,
2013-06-19 21:52:00,75.0,68.0,29.90,South,176,0.0,-999.0,78,-99.99,,,-99.99,,2013-06-20 02:52:00,
2013-06-19 22:02:00,74.0,67.0,29.91,South,176,0.0,-999.0,80,-99.99,,,-99.99,,2013-06-20 03:02:00,
2013-06-19 22:11:00,74.0,67.0,29.91,South,176,0.0,-999.0,80,-99.99,,,-99.99,,2013-06-20 03:11:00,
2013-06-19 22:22:00,74.0,68.0,29.91,South,176,0.0,-999.0,81,-99.99,,,-99.99,,2013-06-20 03:22:00,
2013-06-19 22:33:00,74.0,68.0,29.92,South,176,0.0,-999.0,81,-99.99,,,-99.99,,2013-06-20 03:33:00,
2013-06-19 22:43:00,74.0,68.0,29.92,South,176,0.0,-999.0,81,-99.99,,,-99.99,,2013-06-20 03:43:00,
2013-06-19 22:54:00,74.0,67.0,29.93,South,174,0.0,-999.0,80,-99.99,,,-99.99,,2013-06-20 03:54:00,
2013-06-19 23:01:00,75.0,67.0,29.93,South,176,0.0,-999.0,77,-99.99,,,-99.99,,2013-06-20 04:01:00,
2013-06-19 23:11:00,75.0,67.0,29.93,South,176,0.0,-999.0,77,-99.99,,,-99.99,,2013-06-20 04:11:00,
2013-06-19 23:22:00,74.0,67.0,29.93,South,176,0.0,-999.0,78,-99.99,,,-99.99,,2013-06-20 04:22:00,
2013-06-19 23:33:00,74.0,67.0,29.94,South,177,0.0,-999.0,78,-99.99,,,-99.99,,2013-06-20 04:33:00,
2013-06-19 23:43:00,74.0,67.0,29.94,South,177,0.0,-999.0,78,-99.99,,,-99.99,,2013-06-20 04:43:00,
2013-06-19 23:54:00,75.0,68.0,29.93,South,178,2.0,-999.0,78,-99.99,,,-99.99,,2013-06-20 04:54:00,